Regional Weather Roundup
Issued by NWS Wakefield, VA

Home | Current Version | Previous Version | Text Only | Print | Product List | Glossary On
Versions: 1 2 3 4 5 6 7 8 9 10 11 12 13 14 15 16 17 18 19 20 21 22 23 24 25 26 27
000
ASUS41 KAKQ 210115
RWRAKQ

REGIONAL WEATHER ROUNDUP
NATIONAL WEATHER SERVICE WAKEFIELD VA
900 PM EDT WED SEP 20 2017

Note: "fair" indicates few or no clouds below 12,000 feet with no
significant weather and/or obstructions to visibility. * = Denotes
station may not report precipitation (e.g., rain,snow,etc.),
thunder or fog.

VAZ042-051-052>054-056-210200-
NORTHERN VIRGINIA

CITY           SKY/WX    TMP DP  RH WIND       PRES   REMARKS
WASH NATIONAL  PTCLDY    78  64  61 N7        29.96R
DULLES         PTCLDY    68  63  84 CALM      29.97R
FORT BELVOIR   CLEAR     68  64  88 CALM      29.95S
QUANTICO       CLEAR     72  70  93 NW9       29.97R
FREDERICKSBRG* CLEAR     70  64  83 CALM      29.96R
STAFFORD*      CLEAR     65  65 100 CALM      30.00S
WARRENTON      CLEAR     63  58  83 CALM      29.97S
CULPEPER*      CLEAR     67  65  94 CALM      29.99R
MANASSAS*      LGT RAIN  66  64  93 CALM      29.97R
LEESBURG*      CLEAR     72  68  88 N3        29.98S
WINCHESTER     CLEAR     64  59  82 CALM      30.00R
FRONT ROYAL*   CLEAR     70  63  78 CALM      29.99R
LURAY*         CLEAR     72  61  68 CALM      30.01R
$$

VAZ048-049-060>072-079>083-210200-
CENTRAL AND SOUTH CENTRAL VIRGINIA

CITY           SKY/WX    TMP DP  RH WIND       PRES   REMARKS
RICHMOND       CLEAR     73  65  75 CALM      29.96R
CHESTERFIELD*  NOT AVBL
PETERSBURG*    CLEAR     67  67 100 CALM      29.97S
HANOVER        CLEAR     69  67  93 NE3       29.98R
TAPPAHANNOCK*  CLEAR     69  69 100 CALM      29.97S
QUINTON*       FAIR      70  70 100 CALM      29.96R
CHARLOTTSVILLE PTCLDY    73  67  81 CALM      29.99R
GORDONSVILLE*  CLEAR     70  68  92 CALM      29.98R
ORANGE*        CLEAR     68  64  88 CALM      29.98R
LOUISA*        CLEAR     66  64  94 CALM      29.98R
BUMPASS*       NOT AVBL
FARMVILLE*     PTCLDY    71  66  83 CALM      29.97S
CREWE*         MOCLDY    72  72 100 CALM      29.98R
FORT PICKETT*  FAIR      69  69 100 SW3       29.98R
CHASE CITY*    MOCLDY    71  65  83 NW3       29.99F
CLARKSVILLE*   FAIR      73  63  68 NW5       29.98S
SOUTH HILL*    CLEAR     71  71  98 CALM      30.04R
LAWRENCEVILLE* FAIR      71  68  88 CALM      29.98R
EMPORIA*       CLEAR     73  68  83 CALM      29.99R
$$

VAZ088>098-210200-
SOUTHEAST VIRGINIA

CITY           SKY/WX    TMP DP  RH WIND       PRES   REMARKS
NORFOLK        CLEAR     76  69  79 CALM      29.96R
VIRGINIA BEACH PTCLDY    73  65  75 CALM      29.95R
NORFOLK NAVAL  PTCLDY    73  65  75 CALM      29.97R
WEST POINT*    NOT AVBL
SALUDA*        FAIR      70  68  94 CALM      29.95S
NEWPORT NEWS   CLEAR     69  66  90 CALM      29.96R
LANGLEY AFB    CLEAR     71  67  85 CALM      29.96R
FORT EUSTIS    CLEAR     72  65  80 CALM      29.94R
WILLIAMSBURG*  CLEAR     73  70  88 CALM      29.97R
HR EXEC AP*    FAIR      66  65  96 CALM      29.97R
FRANKLIN*      PTCLDY    70  68  93 CALM      29.97R
US460-WAKEFLD  CLEAR     71  69  93 CALM      29.96R
$$

VAZ020-022-025-037-045-210200-
WEST CENTRAL AND SOUTHWEST VIRGINIA

CITY           SKY/WX    TMP DP  RH WIND       PRES   REMARKS
STAUNTON*      PTCLDY    67  63  86 CALM      30.05R
WAYNESBORO*    PTCLDY    65  65 100 CALM      30.04R
HOT SPRINGS VA CLOUDY    67  58  73 NW6       30.17R
LYNCHBURG      CLEAR     67  61  81 CALM      30.03R
DANVILLE       CLEAR     68  66  93 CALM      30.00R
SOUTH BOSTON*  FAIR      71  64  78 CALM      30.00R
MARTINSVILLE   CLEAR     68  67  96 CALM      30.04S
ROANOKE        CLOUDY    73  67  81 SW3       30.06R
BLACKSBURG     CLOUDY    69  69  99 CALM      30.12S
DUBLIN*        PTCLDY    73  62  68 CALM      30.11R
MARION*        CLEAR     66  59  77 CALM      30.15R
HILLSVILLE*    CLEAR     69  55  59 CALM      30.11R
RICHLANDS*     FAIR      70  59  68 CALM      30.13S
WISE*          CLEAR     70  59  68 CALM      30.14S
ABINGDON*      CLEAR     69  64  81 CALM      30.10R
$$

MDZ021>025-VAZ099-100-210200-
SOUTHERN MARYLAND AND THE DELMARVA PENINSULA

CITY           SKY/WX    TMP DP  RH WIND       PRES   REMARKS
PATUXENT RIVER PTCLDY    67  66  97 SW3       29.94R
BAY BRIDGE APT CLEAR     75  68  78 N3        29.94S
LEONARDTOWN    CLEAR     68  64  88 CALM      29.97R
DOVER          PTCLDY    73  73  99 NE6       29.94R
GEORGETOWN     MOCLDY    75  69  81 CALM      29.93R
EASTON         CLEAR     72  68  88 CALM      29.98R
CAMBRIDGE      CLEAR     70  68  94 CALM      29.94R
SALISBURY      CLEAR     72  69  90 CALM      29.93R
OCEAN CITY     CLEAR     74  69  85 W3        29.93R
WALLOPS ISLAND CLEAR     74  69  85 W3        29.94R
ACCOMACK*      CLEAR     71  68  92 CALM      29.95R
$$

NCZ012>017-030>032-210200-
NORTH CENTRAL AND EASTERN NORTH CAROLINA

CITY           SKY/WX    TMP DP  RH WIND       PRES   REMARKS
ROANOKE RAPIDS FAIR      72  72 100 MISG      29.97R
RALEIGH        PTCLDY    77  68  73 CALM      29.98R
ELIZABETH CITY CLEAR     71  68  90 CALM      29.97R
AHOSKIE*         N/A     71  71  99 CALM      29.97R
EDENTON*       CLEAR     75  72  88 CALM      29.97R
CURRITUCK*     CLEAR     72  68  89 CALM      29.97R
KILL DEVIL HLS CLEAR     73  67  81 CALM      29.95R HAZE
MANTEO         CLEAR     71  66  85 CALM      29.97R
CAPE HATTERAS  CLEAR     77  75  93 SW3       29.97R
TARBORO*       NOT AVBL
GOLDSBORO      PTCLDY    71  71 100 CALM      29.96R
WASHINGTON     PTCLDY    75  71  88 SW3       29.97R
GREENVILLE     CLEAR     73  73 100 CALM      29.99R
NEW BERN       PTCLDY    77  72  84 CALM      29.98R
WILMINGTON     CLEAR     78  72  81 SW6       29.99R
$$

VAZ048-210200-
ELSEWHERE

CITY           SKY/WX    TMP DP  RH WIND       PRES   REMARKS
HARRISBURG PA  PTCLDY    71  64  78 N3        29.96R
BALTIMORE      PTCLDY    70  65  84 W3        29.95R
ANNAPOLIS      CLEAR     75  71  87 CALM      29.94S
ANDREWS AFB    CLEAR     70  61  73 CALM      29.95R
PHILADELPHIA   PTCLDY    79  64  60 VRB3      29.93R
HENDERSON NC   PTCLDY    75  63  66 N6        29.99R
GREENSBORO     PTCLDY    76  67  73 CALM      30.00R
ROCKY MOUNT    CLEAR     72  72 100 CALM      29.98R
$$

VAZ100-210200-
MARINE

STATION/POSITION TIME  TEMP    WIND        PRES    WAVE   SWELL
                       AIR SEA DIR/SP/G            HT/PER HT/PER
                 (UTC) (F)     (DEG/KT/KT) (MB)    (FT/S) (FT/S)
BRANDYWINE LGT   0042   77      40/  8/  8 1013.7R
CAPE MAY NJ      0036   77 75   30/  2/  5 1012.7R
LEWES DE         0042   75 75  270/  3/  4 1013.2R
15NM E FENWICK I 2350   74 71   10/  8/  8 1012.9    6/10   5/10
OCEAN-CITY-INLET 0042   76 74  300/  5/  7 1013.7R
WACHAPREAGUE VA  0042   73 75   CALM  /  1 1014.1R
THOMAS POINT MD  0100   78 75  310/  4/  5   N/A
GOOSES REEF MD   0050   76     260/  4/  4 1014.1R
COVE POINT MD    0042   77     270/  2/  3 1014.6R
SOLOMONS ISLAND  0042   75 76  250/  3/  4 1013.6R
BISHOPS HEAD MD  0042   76 76  270/  5/  6 1014.0R
PINEY POINT MD   0042          310/  4/  5   N/A
POTOMAC MD       0050   77     300/  4/  6 1013.3R
CAMBRIDGE MD     0042   74 76              1014.6R
LEWISETTA VA     0042   75 77  270/  4/  4 1013.9R
RAPPAHANNOCK LGT 0042          340/  5/  5 1014.7R
STINGRAY PT      0050   78     320/  6/  6 1014.5R
YORK RVR RNG VA  0042   78     300/  3/  3 1014.8R
YORKTOWN VA      0042   74 76  210/  1/  2 1014.1R
JAMESTOWN VA     0050           60/  2/  2   N/A
DOMINION TERM VA 0042   79      CALM  /  2 1014.5R
KIPTOPEKE VA     0042      75   10/  3/  4   N/A
CHES BAY BRIDGE  0042   78 75   30/  5/  6 1014.3R
CAPE HENRY VA    0042   77     300/  3/  4   N/A
WILLOUBY STN VA  0042   79      20/  4/  4 1014.5R
S CRANEY ISL VA  0042   78     280/  3/  3 1014.1R
CAPE HENRY BUOY  0030      75                N/A     4/11   2/11
1ST LANDING BUOY 0050   77                 1014.2R
64NM E OF VA BCH 0050   71 70  270/  2/  4 1014.6R   6/11   7/11
DUCK PIER NC     0042   77 75  170/  3/  3 1014.1R
44100 DUCK FRF   0005      75                N/A     5/11   2/11
44056 DUCK FRF   0100      75                N/A     5/10   2/11
OREGON INLET NC  0042   75 77  120/  2/  2 1014.4R
HATTERAS NC      0042   77 77  220/  3/  4 1014.6R
DIAMOND SHLS NC  0050   76 76  220/  4/  6 1014.6R   5/10   5/10
CAPE LOOKOUT NC  0000   78     210/  8/ 10 1014.4R
$$




USA.gov is the U.S. government's official web portal to all federal, state and local government web resources and services.